Find Starlink 2418

NORAD ID: 48097 Int'l Des: 2021-027 Owner: SPXS Country: US Constellation: starlink operational
LEOCIRCULARSTARLINK_TYPE

实时位置

正在加载3D地球...

关于 Starlink 2418

正在加载描述...

即将过境

Passes for default location (London). Set your location on the main map for personalized predictions.

高度历史

Loading altitude history...

两行轨道根数

1 48097U 21027F 26105.88642004 -.00000319 00000-0 14918-5 0 9998
2 48097 53.1588 340.0916 0001222 92.6345 267.4796 15.31694906278371
Epoch: Apr 15, 2026 • Age: 11 hours

当前状态

高度 489.4 km
速度 7.62 km/s
星下点 -51.57°S, 93.37°W
发射日期 Apr 7, 2021
运行时间 5 years
类型 internet

技术详情

分类 Payload
质量 260.00 kg
干质量 248.00 kg
总质量 260.00 kg
长度 0.20 m
直径 2.80 m
跨度 9.00 m
形状 Box + pan
制造商 SPXS
平台类型 Starlink
阶段状态 In Orbit
所有者/国家 SPXS/US

Most Searched